loading
|
Showing default

STRIX-4, 60352

Orbit data source: Space-Track

STRIX-4, 60352 is a payload satellite owned by Synspective (JP) in LEO that was launched on Fri, 02 Aug 2024 UTC via an ELECTRON launch vehicle from the Rocket Lab Launch Complex (RLLC). Payloads include a variety of satellites, spacecraft, and rockets equipped with specific instruments for various scientific and technological missions. These include communications satellites like Starlink; space stations such as the ISS; scientific satellites like the Hubble; Earth observation satellites from companies like Planet Labs, Umbra, and HawkEye 360; GPS; miniature CubeSats for education and research; and military/defense satellites.

Loading next visibility...
Loading greatness...
STRIX-4 details
Identifier
60352, 2024-137A
Orbit
LEO
Last TLE update11 hours ago
Origin
Flag of JPSynspective (JP / JPN)
ManufacturerSynspective
Mission statusOperational
MissionUnknown
Bus & MotorSTRIX, Unknown motor
Mass150 kg wet, 150 kg dry
Launch date (UTC)
2024-08-02 (2 months ago)
Launch vehicle
ELECTRON
Launch site
Rocket Lab Launch Complex (RLLC)
Object type
Payload
Rocket body
Debris
Radar Cross SectionMedium (>0.1 m² and <1 m²)

Expand to show TLE details & history

TLE from 11 hours ago
0 STRIX-4
1 60352U 24137A   24261.43058927  .00058724  00000-0  36608-2 0  9997
2 60352  43.0188 249.6745 0005181 191.5811 168.4915 15.08732760  6908
Epoch: 2024-09-17T10:20Z
Definitive object data (Epoch: 2024-09-17T10:20:02.912Z)
Latitude-0.00007°
Longitude97.81694°
Altitude543.362 km
Speed7.59 km/s
True Right ascension16h 38m 41s
True Declination0° 00' 00"
Sunlit
Object was in daylight at TLE epoch
Predictive object data (real-time)
Latitude-29.66001°
Longitude57.95287°
Altitude549.554 km
Speed7.587 km/s
Apparent Right ascension13h 39m 23s
Apparent Declination-81° 24' 06"
Sunlit
Object is in daylight
Predictive observer data (real-time)
Local Sidereal Time14:03:49
Azimuth181.067° SSW
Elevation-31.362°
Doppler factor1
Orbital elements
Apogee545.583 km
Perigee538.412 km
Semi-major axis6,920.134 km
Eccentricity0.0005181
Inclination43.0188°
RAAN249.6745°
Arg. of periapsis191.5811°
True anomaly168.50334°
Mean anomaly168.4915°
Eccentric anomaly168.49742°
Mean motion3.77026 °/min
BSTAR0.0036608
Period95.48 mins
No data available
Other satellites on launch #137 in the year 2024 (2024-08-02 UTC)

STRIX-4 Visibility forecast

Observer location: 39.9160978°, -105.1181434

STRIX-4 is not visible in the next 10 days
Span
Click to sort rows by Start time (UTC) header in descending order
Start Az.
Max El. time (UTC)
Max El. Az.
Max El.
End time (UTC)
End Az.